WZZ6RJ ESSA-LHBP

Flight info

Callsign WZZ6RJ
Flight time 2h 5m
Altitude 35000
Route BABAP T316 NEPVA DCT ROGMI DCT OLANU/N0454F360 DCT PENOR/N0450F350 DCT RATOR DCT BAXIS DCT BABKO DCT EDEMU
Aircraft A321/M-SDE1E2E3FGIJ1J4RWXY/LB1

Departure

Time 2026-05-07 12:56
Airport Stockholm-Arlanda Airport (ESSA)

Arrival

Time 2026-05-07 15:01
Airport Budapest Liszt Ferenc International Airport (LHBP)
Time Latitude Longitude Altitude Speed Heading
2026-05-07 12:16 59.64743 17.92522 112 ft 0 kts 37°
2026-05-07 12:46 59.64728 17.92500 112 ft 4 kts 26°
2026-05-07 12:46 59.64704 17.92488 112 ft 4 kts 344°
2026-05-07 12:46 59.64692 17.92504 109 ft 1 kts 286°
2026-05-07 12:50 59.64693 17.92498 109 ft 1 kts 286°
2026-05-07 12:50 59.64696 17.92472 112 ft 3 kts 286°
2026-05-07 12:50 59.64703 17.92427 112 ft 5 kts 285°
2026-05-07 12:50 59.64722 17.92303 112 ft 15 kts 291°
2026-05-07 12:51 59.64816 17.92246 112 ft 15 kts
2026-05-07 12:51 59.64921 17.92274 110 ft 16 kts 359°
2026-05-07 12:51 59.65020 17.92159 107 ft 18 kts 351°
2026-05-07 12:51 59.65138 17.92195 107 ft 18 kts 12°
2026-05-07 12:52 59.65260 17.92247 107 ft 18 kts 10°
2026-05-07 12:52 59.65396 17.92288 105 ft 20 kts
2026-05-07 12:52 59.65534 17.92338 105 ft 21 kts 11°
2026-05-07 12:52 59.65682 17.92391 104 ft 22 kts 10°
2026-05-07 12:53 59.65832 17.92444 106 ft 22 kts
2026-05-07 12:53 59.65977 17.92497 109 ft 21 kts 15°
2026-05-07 12:53 59.66117 17.92550 112 ft 20 kts 10°
2026-05-07 12:53 59.66251 17.92599 116 ft 19 kts 11°
2026-05-07 12:54 59.66369 17.92642 119 ft 17 kts 10°
2026-05-07 12:54 59.66479 17.92640 121 ft 15 kts 344°
2026-05-07 12:54 59.66576 17.92574 121 ft 15 kts 335°
2026-05-07 12:54 59.66610 17.92407 120 ft 12 kts 260°
2026-05-07 12:55 59.66571 17.92358 123 ft 4 kts 191°
2026-05-07 12:55 59.66498 17.92329 123 ft 30 kts 191°
2026-05-07 12:55 59.66042 17.92152 116 ft 102 kts 190°
2026-05-07 12:55 59.65140 17.91828 105 ft 160 kts 190°
2026-05-07 12:56 59.63937 17.91402 429 ft 178 kts 191°
2026-05-07 12:56 59.63149 17.91138 1024 ft 175 kts 191°
2026-05-07 12:56 59.61863 17.90755 1586 ft 191 kts 187°
2026-05-07 12:56 59.60502 17.90528 1922 ft 207 kts 185°
2026-05-07 12:57 59.59017 17.90342 2442 ft 212 kts 184°
2026-05-07 12:57 59.57541 17.90296 3085 ft 217 kts 171°
2026-05-07 12:57 59.56170 17.91399 3806 ft 222 kts 143°
2026-05-07 12:57 59.55070 17.93549 4560 ft 225 kts 134°
2026-05-07 12:58 59.54080 17.95988 5303 ft 230 kts 114°
2026-05-07 12:58 59.53856 17.99103 5960 ft 234 kts 77°
2026-05-07 12:58 59.54623 18.01986 6306 ft 251 kts 43°
2026-05-07 12:58 59.55965 18.04450 6689 ft 270 kts 39°
2026-05-07 12:59 59.57394 18.06916 7350 ft 277 kts 39°
2026-05-07 12:59 59.58857 18.09420 8096 ft 281 kts 39°
2026-05-07 12:59 59.60332 18.11992 8840 ft 287 kts 41°
2026-05-07 12:59 59.61585 18.15149 9570 ft 295 kts 59°
2026-05-07 13:00 59.62358 18.18790 10241 ft 302 kts 69°
2026-05-07 13:00 59.63091 18.22990 10526 ft 324 kts 69°
2026-05-07 13:00 59.63833 18.27247 10690 ft 347 kts 69°
2026-05-07 13:00 59.64644 18.31902 10975 ft 363 kts 69°
2026-05-07 13:01 59.65477 18.36675 11570 ft 370 kts 69°
2026-05-07 13:01 59.66183 18.41614 12147 ft 377 kts 81°
2026-05-07 13:01 59.66198 18.46799 12754 ft 383 kts 99°
2026-05-07 13:01 59.65383 18.51804 13372 ft 385 kts 120°
2026-05-07 13:02 59.63760 18.56000 13973 ft 384 kts 141°
2026-05-07 13:02 59.61537 18.58859 14545 ft 378 kts 162°
2026-05-07 13:02 59.59039 18.60101 15132 ft 371 kts 181°
2026-05-07 13:02 59.56490 18.59729 15747 ft 364 kts 198°
2026-05-07 13:03 59.54032 18.58500 16383 ft 365 kts 199°
2026-05-07 13:03 59.51589 18.57252 17021 ft 368 kts 200°
2026-05-07 13:03 59.49106 18.55976 17643 ft 371 kts 200°
2026-05-07 13:03 59.46602 18.54693 18283 ft 374 kts 200°
2026-05-07 13:04 59.44070 18.53409 18835 ft 377 kts 199°
2026-05-07 13:04 59.41512 18.52229 19376 ft 381 kts 198°
2026-05-07 13:04 59.38919 18.51177 19925 ft 384 kts 197°
2026-05-07 13:04 59.36302 18.50188 20454 ft 387 kts 197°
2026-05-07 13:05 59.33640 18.49201 20988 ft 390 kts 197°
2026-05-07 13:05 59.30937 18.48191 21503 ft 393 kts 197°
2026-05-07 13:05 59.28242 18.47164 22010 ft 396 kts 197°
2026-05-07 13:05 59.25562 18.46126 22482 ft 398 kts 197°
2026-05-07 13:06 59.22851 18.45069 22956 ft 401 kts 197°
2026-05-07 13:06 59.20101 18.43991 23438 ft 404 kts 198°
2026-05-07 13:06 59.17338 18.42902 23863 ft 407 kts 198°
2026-05-07 13:06 59.14559 18.41806 24236 ft 409 kts 198°
2026-05-07 13:07 59.11744 18.40700 24633 ft 412 kts 197°
2026-05-07 13:07 59.08921 18.39598 24997 ft 415 kts 197°
2026-05-07 13:07 59.06132 18.38515 25369 ft 417 kts 197°
2026-05-07 13:07 59.03276 18.37411 25746 ft 420 kts 197°
2026-05-07 13:08 59.00393 18.36298 26111 ft 422 kts 197°
2026-05-07 13:08 58.97502 18.35185 26472 ft 425 kts 197°
2026-05-07 13:08 58.94594 18.34067 26827 ft 427 kts 197°
2026-05-07 13:08 58.91687 18.32945 27172 ft 430 kts 197°
2026-05-07 13:09 58.88731 18.31806 27528 ft 432 kts 197°
2026-05-07 13:09 58.85775 18.30669 27854 ft 435 kts 197°
2026-05-07 13:09 58.82814 18.29535 28181 ft 437 kts 197°
2026-05-07 13:09 58.79803 18.28387 28521 ft 440 kts 197°
2026-05-07 13:10 58.76799 18.27245 28842 ft 442 kts 197°
2026-05-07 13:10 58.73803 18.26105 29165 ft 445 kts 197°
2026-05-07 13:10 58.70760 18.24948 29498 ft 447 kts 197°
2026-05-07 13:10 58.67717 18.23789 29859 ft 448 kts 197°
2026-05-07 13:11 58.64658 18.22629 30293 ft 447 kts 197°
2026-05-07 13:11 58.61592 18.21465 30686 ft 446 kts 197°
2026-05-07 13:11 58.58574 18.20320 31050 ft 446 kts 196°
2026-05-07 13:11 58.55548 18.19180 31432 ft 445 kts 196°
2026-05-07 13:12 58.52481 18.18029 31815 ft 444 kts 196°
2026-05-07 13:12 58.49457 18.16893 32187 ft 443 kts 196°
2026-05-07 13:12 58.46431 18.15759 32562 ft 442 kts 196°
2026-05-07 13:12 58.43416 18.14637 32921 ft 442 kts 196°
2026-05-07 13:13 58.40430 18.13528 33276 ft 441 kts 196°
2026-05-07 13:13 58.37427 18.12402 33626 ft 440 kts 196°
2026-05-07 13:13 58.34444 18.11281 33977 ft 439 kts 196°
2026-05-07 13:13 58.31449 18.10163 34280 ft 439 kts 195°
2026-05-07 13:14 58.28445 18.09051 34569 ft 438 kts 195°
2026-05-07 13:14 58.25488 18.07955 34836 ft 437 kts 195°
2026-05-07 13:14 58.22467 18.06838 35051 ft 438 kts 195°
2026-05-07 13:14 58.19516 18.05749 35107 ft 436 kts 195°
2026-05-07 13:15 58.13589 18.03574 35109 ft 434 kts 195°
2026-05-07 13:15 58.07655 18.01396 35109 ft 434 kts 195°
2026-05-07 13:16 58.01737 17.99222 35108 ft 434 kts 195°
2026-05-07 13:16 57.95799 17.97046 35106 ft 434 kts 195°
2026-05-07 13:17 57.89910 17.94904 35112 ft 434 kts 195°
2026-05-07 13:17 57.83960 17.92761 35105 ft 434 kts 195°
2026-05-07 13:18 57.78041 17.90620 35114 ft 434 kts 195°
2026-05-07 13:18 57.72134 17.88490 35112 ft 434 kts 195°
2026-05-07 13:19 57.66201 17.86355 35110 ft 434 kts 195°
2026-05-07 13:19 57.60274 17.84239 35108 ft 434 kts 195°
2026-05-07 13:20 57.54315 17.82125 35113 ft 434 kts 195°
2026-05-07 13:20 57.48389 17.80021 35122 ft 434 kts 195°
2026-05-07 13:21 57.42471 17.77911 35113 ft 433 kts 195°
2026-05-07 13:21 57.36597 17.75764 35108 ft 433 kts 195°
2026-05-07 13:22 57.30706 17.73619 35102 ft 432 kts 195°
2026-05-07 13:22 57.24802 17.71503 35102 ft 432 kts 195°
2026-05-07 13:23 57.18930 17.69398 35098 ft 432 kts 195°
2026-05-07 13:23 57.13027 17.67285 35098 ft 431 kts 195°
2026-05-07 13:24 57.07144 17.65198 35100 ft 431 kts 195°
2026-05-07 13:24 57.01254 17.63107 35100 ft 431 kts 195°
2026-05-07 13:25 56.95365 17.61014 35105 ft 431 kts 194°
2026-05-07 13:25 56.89521 17.58949 35108 ft 431 kts 194°
2026-05-07 13:26 56.83647 17.56890 35106 ft 430 kts 194°
2026-05-07 13:26 56.77767 17.54830 35109 ft 430 kts 194°
2026-05-07 13:27 56.71889 17.52773 35110 ft 430 kts 194°
2026-05-07 13:27 56.66044 17.50727 35112 ft 430 kts 194°
2026-05-07 13:28 56.60178 17.48690 35108 ft 430 kts 194°
2026-05-07 13:28 56.54306 17.46656 35111 ft 429 kts 194°
2026-05-07 13:29 56.48442 17.44634 35113 ft 429 kts 194°
2026-05-07 13:29 56.42605 17.42634 35114 ft 429 kts 194°
2026-05-07 13:30 56.36718 17.40606 35123 ft 428 kts 194°
2026-05-07 13:30 56.30922 17.38632 35116 ft 427 kts 194°
2026-05-07 13:31 56.25068 17.36636 35114 ft 426 kts 194°
2026-05-07 13:31 56.19250 17.34649 35113 ft 426 kts 194°
2026-05-07 13:32 56.13457 17.32683 35113 ft 426 kts 194°
2026-05-07 13:32 56.07646 17.30730 35111 ft 425 kts 194°
2026-05-07 13:33 56.01832 17.28778 35108 ft 425 kts 194°
2026-05-07 13:33 55.96024 17.26823 35111 ft 424 kts 194°
2026-05-07 13:34 55.87330 17.23920 35110 ft 424 kts 193°
2026-05-07 13:35 55.81578 17.21998 35107 ft 424 kts 194°
2026-05-07 13:35 55.75794 17.20071 35105 ft 424 kts 193°
2026-05-07 13:36 55.69983 17.18143 35108 ft 423 kts 193°
2026-05-07 13:36 55.64132 17.16873 35107 ft 428 kts 180°
2026-05-07 13:37 55.59250 17.18531 35103 ft 432 kts 171°
2026-05-07 13:37 55.53418 17.21047 35108 ft 433 kts 170°
2026-05-07 13:38 55.46601 17.24043 35110 ft 433 kts 170°
2026-05-07 13:38 55.41753 17.26152 35107 ft 432 kts 170°
2026-05-07 13:39 55.34970 17.29085 35106 ft 431 kts 170°
2026-05-07 13:39 55.29150 17.31586 35103 ft 430 kts 170°
2026-05-07 13:40 55.23349 17.34079 35100 ft 430 kts 170°
2026-05-07 13:40 55.17549 17.36561 35103 ft 429 kts 170°
2026-05-07 13:41 55.11751 17.39040 35099 ft 429 kts 170°
2026-05-07 13:41 55.06915 17.41098 35098 ft 428 kts 170°
2026-05-07 13:42 55.00204 17.43953 35092 ft 427 kts 170°
2026-05-07 13:42 54.95394 17.45987 35092 ft 427 kts 170°
2026-05-07 13:43 54.89635 17.48407 35087 ft 427 kts 170°
2026-05-07 13:43 54.82918 17.51237 35087 ft 427 kts 170°
2026-05-07 13:44 54.78115 17.53258 35088 ft 426 kts 170°
2026-05-07 13:44 54.72363 17.55661 35083 ft 426 kts 171°
2026-05-07 13:45 54.65661 17.58447 35085 ft 425 kts 171°
2026-05-07 13:45 54.60842 17.60461 35085 ft 425 kts 170°
2026-05-07 13:46 54.55099 17.62857 35083 ft 424 kts 171°
2026-05-07 13:46 54.49368 17.65217 35083 ft 423 kts 171°
2026-05-07 13:47 54.43647 17.67567 35079 ft 423 kts 171°
2026-05-07 13:47 54.37997 17.69898 35075 ft 422 kts 171°
2026-05-07 13:48 54.32271 17.72249 35072 ft 421 kts 171°
2026-05-07 13:48 54.26609 17.74556 35071 ft 420 kts 171°
2026-05-07 13:49 54.20934 17.76866 35069 ft 420 kts 171°
2026-05-07 13:49 54.15214 17.79195 35062 ft 419 kts 171°
2026-05-07 13:50 54.09585 17.81485 35061 ft 419 kts 171°
2026-05-07 13:50 54.03926 17.83773 35053 ft 418 kts 171°
2026-05-07 13:51 53.98264 17.86047 35050 ft 418 kts 171°
2026-05-07 13:51 53.92654 17.88309 35059 ft 417 kts 171°
2026-05-07 13:52 53.86994 17.90568 35051 ft 417 kts 171°
2026-05-07 13:52 53.81378 17.92799 35042 ft 417 kts 171°
2026-05-07 13:53 53.75707 17.95046 35039 ft 416 kts 171°
2026-05-07 13:53 53.70100 17.97260 35042 ft 416 kts 171°
2026-05-07 13:54 53.64456 17.99494 35033 ft 416 kts 171°
2026-05-07 13:54 53.58845 18.01714 35036 ft 416 kts 171°
2026-05-07 13:55 53.53238 18.03910 35033 ft 415 kts 171°
2026-05-07 13:55 53.47582 18.06112 35027 ft 415 kts 171°
2026-05-07 13:56 53.42007 18.08294 35032 ft 414 kts 171°
2026-05-07 13:56 53.36390 18.10495 35030 ft 414 kts 171°
2026-05-07 13:57 53.30788 18.12669 35029 ft 413 kts 171°
2026-05-07 13:57 53.25271 18.14795 35037 ft 413 kts 171°
2026-05-07 13:58 53.19655 18.16966 35038 ft 412 kts 171°
2026-05-07 13:58 53.14093 18.19116 35039 ft 412 kts 171°
2026-05-07 13:59 53.08502 18.21271 35037 ft 411 kts 172°
2026-05-07 13:59 53.02888 18.23416 35034 ft 411 kts 172°
2026-05-07 14:00 52.97386 18.25509 35033 ft 410 kts 172°
2026-05-07 14:00 52.91831 18.27632 35026 ft 410 kts 172°
2026-05-07 14:01 52.86293 18.29742 35020 ft 410 kts 172°
2026-05-07 14:01 52.80749 18.31849 35017 ft 409 kts 172°
2026-05-07 14:02 52.75200 18.33941 35013 ft 409 kts 172°
2026-05-07 14:02 52.69676 18.36020 35006 ft 409 kts 172°
2026-05-07 14:03 52.64158 18.38101 35007 ft 408 kts 172°
2026-05-07 14:03 52.58618 18.40175 35006 ft 408 kts 172°
2026-05-07 14:04 52.53079 18.42247 35006 ft 408 kts 172°
2026-05-07 14:04 52.47573 18.44303 35022 ft 408 kts 172°
2026-05-07 14:05 52.42009 18.46381 35012 ft 408 kts 172°
2026-05-07 14:05 52.36469 18.48436 35007 ft 407 kts 172°
2026-05-07 14:06 52.30953 18.50479 35005 ft 407 kts 172°
2026-05-07 14:06 52.25480 18.52512 35003 ft 407 kts 172°
2026-05-07 14:07 52.19963 18.54566 35002 ft 407 kts 172°
2026-05-07 14:07 52.14394 18.56619 34995 ft 407 kts 172°
2026-05-07 14:08 52.08948 18.58610 34999 ft 407 kts 172°
2026-05-07 14:08 52.03352 18.60656 34996 ft 407 kts 171°
2026-05-07 14:09 51.97873 18.62651 34995 ft 406 kts 171°
2026-05-07 14:09 51.92404 18.64638 34996 ft 406 kts 171°
2026-05-07 14:10 51.86873 18.66632 34993 ft 406 kts 171°
2026-05-07 14:10 51.81332 18.68634 34993 ft 405 kts 171°
2026-05-07 14:11 51.75874 18.70612 34995 ft 405 kts 171°
2026-05-07 14:11 51.70382 18.72658 34990 ft 405 kts 171°
2026-05-07 14:12 51.64874 18.74724 34988 ft 405 kts 171°
2026-05-07 14:12 51.59413 18.76749 34977 ft 405 kts 171°
2026-05-07 14:13 51.53882 18.78793 34979 ft 405 kts 171°
2026-05-07 14:13 51.48477 18.80785 34978 ft 405 kts 171°
2026-05-07 14:14 51.42943 18.82814 34974 ft 405 kts 171°
2026-05-07 14:14 51.37506 18.84804 34973 ft 405 kts 171°
2026-05-07 14:15 51.32009 18.86814 34967 ft 405 kts 171°
2026-05-07 14:15 51.26518 18.88832 34963 ft 406 kts 171°
2026-05-07 14:16 51.21024 18.90841 34960 ft 406 kts 171°
2026-05-07 14:16 51.15524 18.92846 34955 ft 406 kts 171°
2026-05-07 14:17 51.10052 18.94807 34953 ft 406 kts 171°
2026-05-07 14:17 51.04548 18.96776 34952 ft 406 kts 171°
2026-05-07 14:18 50.99022 18.98773 34949 ft 406 kts 171°
2026-05-07 14:18 50.93509 19.00760 34945 ft 406 kts 171°
2026-05-07 14:19 50.87997 19.02733 34942 ft 406 kts 171°
2026-05-07 14:19 50.82524 19.04692 34940 ft 407 kts 171°
2026-05-07 14:20 50.76998 19.06667 34943 ft 407 kts 171°
2026-05-07 14:20 50.71475 19.08630 34936 ft 407 kts 171°
2026-05-07 14:21 50.65965 19.10584 34934 ft 407 kts 171°
2026-05-07 14:21 50.60428 19.12545 34928 ft 408 kts 171°
2026-05-07 14:22 50.54904 19.14501 34930 ft 409 kts 171°
2026-05-07 14:22 50.49356 19.16458 34935 ft 410 kts 171°
2026-05-07 14:23 50.43792 19.18415 34939 ft 410 kts 171°
2026-05-07 14:23 50.38254 19.20365 34943 ft 410 kts 172°
2026-05-07 14:24 50.32689 19.22312 34943 ft 410 kts 172°
2026-05-07 14:24 50.27131 19.24251 34945 ft 410 kts 172°
2026-05-07 14:25 50.21547 19.26192 34958 ft 411 kts 172°
2026-05-07 14:25 50.15928 19.28140 34952 ft 410 kts 172°
2026-05-07 14:26 50.10408 19.30058 34949 ft 410 kts 172°
2026-05-07 14:26 50.04852 19.31983 34948 ft 410 kts 172°
2026-05-07 14:27 49.99315 19.33899 34947 ft 410 kts 172°
2026-05-07 14:27 49.93742 19.35817 34953 ft 410 kts 172°
2026-05-07 14:28 49.88116 19.37740 34959 ft 410 kts 172°
2026-05-07 14:28 49.82604 19.39627 34959 ft 410 kts 172°
2026-05-07 14:29 49.77068 19.41526 34962 ft 410 kts 172°
2026-05-07 14:29 49.71498 19.43440 34965 ft 410 kts 172°
2026-05-07 14:30 49.65946 19.45331 34967 ft 409 kts 172°
2026-05-07 14:30 49.60390 19.47188 34968 ft 409 kts 173°
2026-05-07 14:31 49.54802 19.48657 34970 ft 407 kts 176°
2026-05-07 14:31 49.49187 19.49896 34973 ft 407 kts 176°
2026-05-07 14:32 49.43538 19.51169 34975 ft 408 kts 176°
2026-05-07 14:32 49.37988 19.52500 34973 ft 408 kts 175°
2026-05-07 14:33 49.32441 19.53849 34975 ft 408 kts 176°
2026-05-07 14:33 49.26763 19.55219 34976 ft 408 kts 176°
2026-05-07 14:34 49.21232 19.56543 34978 ft 408 kts 176°
2026-05-07 14:34 49.15607 19.57885 34978 ft 408 kts 176°
2026-05-07 14:35 49.10010 19.59211 34987 ft 408 kts 176°
2026-05-07 14:35 49.04356 19.60543 34987 ft 408 kts 176°
2026-05-07 14:36 48.98767 19.61869 34989 ft 408 kts 176°
2026-05-07 14:36 48.93188 19.63197 34990 ft 408 kts 176°
2026-05-07 14:37 48.87567 19.64518 34985 ft 408 kts 176°
2026-05-07 14:37 48.79165 19.66488 34707 ft 408 kts 176°
2026-05-07 14:38 48.76380 19.67148 34460 ft 407 kts 176°
2026-05-07 14:38 48.73588 19.67811 34213 ft 406 kts 176°
2026-05-07 14:38 48.70793 19.68472 33980 ft 406 kts 176°
2026-05-07 14:38 48.68022 19.69118 33293 ft 408 kts 176°
2026-05-07 14:39 48.65197 19.69768 32548 ft 410 kts 176°
2026-05-07 14:39 48.62360 19.70414 31752 ft 414 kts 176°
2026-05-07 14:39 48.59498 19.71070 31046 ft 415 kts 176°
2026-05-07 14:39 48.56688 19.71726 30619 ft 410 kts 176°
2026-05-07 14:40 48.53884 19.72387 30107 ft 407 kts 175°
2026-05-07 14:40 48.51117 19.73041 29554 ft 403 kts 175°
2026-05-07 14:40 48.48363 19.73688 29064 ft 397 kts 175°
2026-05-07 14:40 48.45647 19.74318 28569 ft 393 kts 176°
2026-05-07 14:41 48.42945 19.74940 28083 ft 388 kts 175°
2026-05-07 14:41 48.40310 19.75544 27605 ft 384 kts 175°
2026-05-07 14:41 48.37679 19.76149 27128 ft 380 kts 175°
2026-05-07 14:41 48.35060 19.76755 26654 ft 377 kts 175°
2026-05-07 14:42 48.33368 19.77145 26343 ft 375 kts 175°
2026-05-07 14:42 48.31149 19.77657 25940 ft 373 kts 175°
2026-05-07 14:42 48.28573 19.78247 25477 ft 371 kts 175°
2026-05-07 14:42 48.26036 19.78828 25028 ft 369 kts 175°
2026-05-07 14:43 48.23494 19.79406 24574 ft 368 kts 175°
2026-05-07 14:43 48.21021 19.79969 24154 ft 366 kts 175°
2026-05-07 14:43 48.18536 19.80477 23723 ft 363 kts 179°
2026-05-07 14:43 48.16029 19.80441 23240 ft 359 kts 188°
2026-05-07 14:44 48.13559 19.79886 22790 ft 355 kts 191°
2026-05-07 14:44 48.11145 19.79312 22365 ft 351 kts 191°
2026-05-07 14:44 48.08748 19.78751 21940 ft 348 kts 191°
2026-05-07 14:44 48.06347 19.78189 21514 ft 344 kts 191°
2026-05-07 14:45 48.04000 19.77642 21103 ft 340 kts 191°
2026-05-07 14:45 48.01672 19.77101 20699 ft 336 kts 190°
2026-05-07 14:45 47.99405 19.76573 20284 ft 333 kts 190°
2026-05-07 14:45 47.97130 19.76039 19864 ft 331 kts 190°
2026-05-07 14:46 47.94859 19.75507 19438 ft 329 kts 190°
2026-05-07 14:46 47.92614 19.74880 18829 ft 332 kts 198°
2026-05-07 14:46 47.90538 19.73291 17961 ft 342 kts 216°
2026-05-07 14:46 47.88592 19.71117 17275 ft 344 kts 216°
2026-05-07 14:47 47.86760 19.69051 16858 ft 340 kts 216°
2026-05-07 14:47 47.84845 19.66893 16416 ft 336 kts 216°
2026-05-07 14:47 47.83009 19.64831 15945 ft 332 kts 216°
2026-05-07 14:47 47.81178 19.62778 15521 ft 328 kts 216°
2026-05-07 14:48 47.79386 19.60775 15094 ft 325 kts 217°
2026-05-07 14:48 47.77653 19.58839 14666 ft 322 kts 217°
2026-05-07 14:48 47.75816 19.56790 14217 ft 320 kts 217°
2026-05-07 14:48 47.74054 19.54831 13799 ft 317 kts 217°
2026-05-07 14:49 47.72305 19.52887 13341 ft 315 kts 217°
2026-05-07 14:49 47.70569 19.50958 12914 ft 311 kts 217°
2026-05-07 14:49 47.68841 19.49040 12491 ft 308 kts 217°
2026-05-07 14:49 47.67157 19.47173 12072 ft 305 kts 217°
2026-05-07 14:50 47.65447 19.45276 11649 ft 302 kts 217°
2026-05-07 14:50 47.63801 19.43449 11413 ft 294 kts 217°
2026-05-07 14:50 47.62198 19.41669 11284 ft 283 kts 216°
2026-05-07 14:50 47.60654 19.39957 11171 ft 272 kts 216°
2026-05-07 14:51 47.59160 19.38303 11025 ft 262 kts 216°
2026-05-07 14:51 47.57723 19.36712 10862 ft 255 kts 216°
2026-05-07 14:51 47.56325 19.35163 10626 ft 251 kts 217°
2026-05-07 14:51 47.54945 19.33668 10390 ft 249 kts 212°
2026-05-07 14:52 47.53324 19.32825 10155 ft 248 kts 185°
2026-05-07 14:52 47.51662 19.33187 9930 ft 252 kts 159°
2026-05-07 14:52 47.50227 19.34745 9806 ft 260 kts 136°
2026-05-07 14:52 47.48995 19.36737 9500 ft 263 kts 136°
2026-05-07 14:53 47.47759 19.38733 9109 ft 265 kts 136°
2026-05-07 14:53 47.46513 19.40742 8717 ft 266 kts 136°
2026-05-07 14:53 47.45265 19.42758 8448 ft 262 kts 136°
2026-05-07 14:53 47.44052 19.44719 8114 ft 261 kts 136°
2026-05-07 14:54 47.42830 19.46694 7628 ft 260 kts 136°
2026-05-07 14:54 47.41826 19.48308 7250 ft 259 kts 136°
2026-05-07 14:54 47.40673 19.50151 6808 ft 257 kts 136°
2026-05-07 14:54 47.39460 19.52093 6375 ft 259 kts 136°
2026-05-07 14:55 47.38297 19.53962 6012 ft 254 kts 135°
2026-05-07 14:55 47.36986 19.55725 5447 ft 246 kts 155°
2026-05-07 14:55 47.35428 19.56336 5052 ft 236 kts 184°
2026-05-07 14:55 47.33860 19.55739 4625 ft 237 kts 212°
2026-05-07 14:56 47.32612 19.54228 4364 ft 232 kts 223°
2026-05-07 14:56 47.31451 19.52646 4272 ft 223 kts 224°
2026-05-07 14:56 47.30620 19.50716 3959 ft 220 kts 255°
2026-05-07 14:56 47.30675 19.48538 3766 ft 214 kts 287°
2026-05-07 14:57 47.31464 19.46755 3550 ft 213 kts 309°
2026-05-07 14:57 47.32464 19.45172 3282 ft 212 kts 310°
2026-05-07 14:57 47.33451 19.43611 3020 ft 204 kts 309°
2026-05-07 14:57 47.34384 19.42118 2757 ft 193 kts 309°
2026-05-07 14:58 47.35268 19.40699 2491 ft 184 kts 309°
2026-05-07 14:58 47.36101 19.39362 2241 ft 173 kts 309°
2026-05-07 14:58 47.36883 19.38106 2059 ft 157 kts 309°
2026-05-07 14:58 47.37603 19.36949 1825 ft 150 kts 308°
2026-05-07 14:59 47.38292 19.35838 1634 ft 147 kts 308°
2026-05-07 14:59 47.38978 19.34732 1437 ft 146 kts 309°
2026-05-07 14:59 47.39658 19.33637 1234 ft 143 kts 309°
2026-05-07 14:59 47.40146 19.32851 1089 ft 141 kts 308°
2026-05-07 15:00 47.40754 19.31870 914 ft 139 kts 308°
2026-05-07 15:00 47.41405 19.30821 737 ft 138 kts 308°
2026-05-07 15:00 47.41932 19.29973 581 ft 138 kts 308°
2026-05-07 15:00 47.42585 19.28925 447 ft 128 kts 309°
2026-05-07 15:01 47.43085 19.28102 460 ft 83 kts 313°
2026-05-07 15:01 47.43311 19.27704 465 ft 31 kts 295°
2026-05-07 15:01 47.43359 19.27480 462 ft 21 kts 287°
2026-05-07 15:01 47.43394 19.27260 460 ft 23 kts 282°
2026-05-07 15:02 47.43428 19.27041 459 ft 21 kts 286°
2026-05-07 15:02 47.43509 19.26868 458 ft 21 kts 313°
2026-05-07 15:02 47.43570 19.26772 458 ft 21 kts 313°
2026-05-07 15:02 47.43673 19.26604 457 ft 22 kts 312°
2026-05-07 15:03 47.43754 19.26441 458 ft 13 kts 276°
2026-05-07 15:03 47.43708 19.26361 456 ft 10 kts 206°
2026-05-07 15:03 47.43653 19.26388 458 ft 9 kts 136°
2026-05-07 15:03 47.43603 19.26455 458 ft 10 kts 135°
2026-05-07 15:04 47.43579 19.26490 458 ft 11 kts 134°
2026-05-07 15:04 47.43559 19.26522 458 ft 12 kts 132°
2026-05-07 15:04 47.43513 19.26598 458 ft 7 kts 133°
2026-05-07 15:04 47.43472 19.26616 458 ft 4 kts 191°
2026-05-07 15:05 47.43469 19.26608 458 ft 1 kts 235°
2026-05-07 15:05 47.43465 19.26598 458 ft 0 kts 237°
2026-05-07 15:05 47.43464 19.26596 458 ft 1 kts 236°
2026-05-07 15:05 47.43450 19.26573 458 ft 0 kts 224°